Weather History for Bellaire, MI

Change the Weather History Date:

Wednesday, November 21, 2012

  Actual Average (KTVC) Record (KTVC)
Temperature  
Mean Temperature 49 °F 35 °F  
Max Temperature 56 °F 42 °F 68 °F (1913)
Min Temperature 42 °F 29 °F 11 °F (1969)
Degree Days  
Heating Degree Days 16 30  
Month to date heating degree days 545  
Since 1 July heating degree days 1332  
Moisture  
Dew Point 41 °F    
Average Humidity 75    
Maximum Humidity 91    
Minimum Humidity 57    
Precipitation  
Precipitation 0.00 in 0.09 in 0.90 in (1995)
Month to date precipitation 1.93  
Year to date precipitation 29.79  
Sea Level Pressure  
Sea Level Pressure 30.10 in    
Wind  
Wind Speed 3 mph (South)    
Max Wind Speed 10 mph    
Max Gust Speed -    
Visibility 8 miles    
Events      
T = Trace of Precipitation, MM = Missing Value Source: NWS Daily Summary

Daily Weather History Graph

Daily Weather History Graph

Search for Another Location

Airport:

Trip Planner

Search our weather history database for the weather conditions in past years. The results will help you decide how hot, cold, wet, or windy it might be!

Date:

Astronomy

Nov. 21, 2012 Rise Set
Actual Time 7:47 AM EST 5:06 PM EST
Civil Twilight 7:14 AM EST 5:38 PM EST
Nautical Twilight 6:38 AM EST 6:14 PM EST
Astronomical Twilight 6:03 AM EST 6:49 PM EST
Moon 1:37 PM EST (11/21) 12:48 AM EST (11/21)
Length of Visible Light 10h 23m
Length of Day
9h 19m
First Quarter, 61% of the Moon is Illuminated
Nov 21
First Quarter
Nov 28
Full
Dec 6
Last Quarter
Dec 13
New
Dec 20
First Quarter

Hourly Weather History & Observations

Time (EST) Temp. Windchill Dew Point Humidity Pressure Visibility Wind Dir Wind Speed Gust Speed Precip Events Conditions
12:14 AM 43.0 °F - 40.1 °F 90% 30.15 in 4.0 mi Calm Calm - N/A   Overcast
12:35 AM 43.0 °F - 40.1 °F 90% 30.15 in 4.0 mi Calm Calm - N/A   Overcast
12:54 AM 43.0 °F - 40.3 °F 90% 30.15 in 4.0 mi Calm Calm - N/A   Overcast
1:15 AM 42.8 °F - 40.1 °F 90% 30.15 in 4.0 mi Calm Calm - N/A   Overcast
1:35 AM 43.2 °F - 40.5 °F 90% 30.15 in 4.0 mi Calm Calm - N/A   Overcast
1:54 AM 42.8 °F - 40.3 °F 91% 30.15 in 4.0 mi Calm Calm - N/A   Overcast
2:15 AM 43.0 °F - 40.5 °F 91% 30.15 in 5.0 mi Calm Calm - N/A   Overcast
2:35 AM 43.5 °F - 40.5 °F 89% 30.15 in 5.0 mi Calm Calm - N/A   Overcast
2:54 AM 43.2 °F - 40.5 °F 90% 30.15 in 5.0 mi Calm Calm - N/A   Overcast
3:15 AM 43.2 °F - 40.6 °F 91% 30.15 in 5.0 mi Calm Calm - N/A   Overcast
3:34 AM 43.7 °F - 41.2 °F 91% 30.16 in 5.0 mi Calm Calm - N/A   Overcast
3:55 AM 43.3 °F - 40.6 °F 90% 30.15 in 5.0 mi Calm Calm - N/A   Overcast
4:14 AM 43.2 °F - 40.8 °F 91% 30.15 in 4.0 mi Calm Calm - N/A   Overcast
4:35 AM 43.7 °F - 41.2 °F 91% 30.15 in 4.0 mi Calm Calm - N/A   Overcast
4:55 AM 44.1 °F - 41.7 °F 91% 30.15 in 5.0 mi Calm Calm - N/A   Overcast
5:14 AM 44.2 °F - 41.5 °F 90% 30.16 in 5.0 mi Calm Calm - N/A   Overcast
5:35 AM 43.5 °F - 41.0 °F 91% 30.16 in 5.0 mi Calm Calm - N/A   Overcast
5:55 AM 43.9 °F - 41.4 °F 91% 30.16 in 5.0 mi Calm Calm - N/A   Overcast
6:15 AM 45.0 °F - 42.3 °F 90% 30.16 in 7.0 mi Calm Calm - N/A   Overcast
6:35 AM 46.4 °F - 41.9 °F 84% 30.16 in 7.0 mi Calm Calm - N/A   Overcast
6:55 AM 46.8 °F - 41.5 °F 82% 30.17 in 10.0 mi Calm Calm - N/A   Overcast
7:15 AM 46.6 °F - 41.2 °F 81% 30.17 in 10.0 mi Calm Calm - N/A   Overcast
7:35 AM 46.8 °F - 41.4 °F 81% 30.17 in 10.0 mi Calm Calm - N/A   Overcast
7:55 AM 46.6 °F - 41.5 °F 83% 30.18 in 7.0 mi Calm Calm - N/A   Overcast
8:15 AM 46.6 °F - 41.2 °F 81% 30.18 in 7.0 mi SSW 4.6 mph - N/A   Overcast
8:35 AM 46.6 °F - 41.2 °F 81% 30.18 in 7.0 mi Calm Calm - N/A   Overcast
8:55 AM 46.9 °F - 41.4 °F 81% 30.18 in 7.0 mi South 3.5 mph - N/A   Overcast
9:15 AM 47.1 °F - 41.4 °F 80% 30.18 in 7.0 mi South 4.6 mph - N/A   Overcast
9:34 AM 47.5 °F - 41.2 °F 79% 30.17 in 7.0 mi South 6.9 mph - N/A   Overcast
9:55 AM 47.8 °F - 41.4 °F 78% 30.17 in 5.0 mi South 4.6 mph - N/A   Haze
10:15 AM 48.4 °F - 41.5 °F 77% 30.18 in 5.0 mi South 4.6 mph - N/A   Haze
10:35 AM 49.1 °F - 42.1 °F 77% 30.15 in 4.0 mi South 10.4 mph - N/A   Haze
10:55 AM 50.4 °F - 42.3 °F 74% 30.16 in 4.0 mi South 9.2 mph - N/A   Haze
11:15 AM 50.9 °F - 42.4 °F 73% 30.16 in 4.0 mi South 6.9 mph - N/A   Haze
11:34 AM 51.8 °F - 42.4 °F 70% 30.16 in 4.0 mi South 10.4 mph - N/A   Haze
11:55 AM 52.3 °F - 42.6 °F 69% 30.15 in 5.0 mi South 5.8 mph - N/A   Haze
12:15 PM 53.1 °F - 42.6 °F 68% 30.13 in 5.0 mi SSW 8.1 mph - N/A   Haze
12:35 PM 53.2 °F - 42.6 °F 67% 30.12 in 5.0 mi SSW 8.1 mph - N/A   Haze
12:55 PM 53.6 °F - 42.8 °F 67% 30.11 in 5.0 mi SSW 6.9 mph - N/A   Haze
1:15 PM 54.7 °F - 42.8 °F 64% 30.11 in 7.0 mi SSW 4.6 mph - N/A   Clear
1:35 PM 55.0 °F - 42.8 °F 63% 30.10 in 7.0 mi SSW 5.8 mph - N/A   Clear
1:55 PM 55.4 °F - 42.8 °F 63% 30.09 in 10.0 mi South 6.9 mph - N/A   Clear
2:15 PM 56.3 °F - 42.4 °F 60% 30.08 in 10.0 mi SSW 8.1 mph - N/A   Clear
2:35 PM 56.3 °F - 41.9 °F 59% 30.07 in 10.0 mi South 8.1 mph - N/A   Clear
2:55 PM 55.4 °F - 41.5 °F 60% 30.06 in 10.0 mi SSW 6.9 mph - N/A   Clear
3:15 PM 55.4 °F - 43.0 °F 63% 30.06 in 10.0 mi South 10.4 mph - N/A   Clear
3:35 PM 54.7 °F - 43.2 °F 65% 30.05 in 10.0 mi SSE 8.1 mph - N/A   Clear
3:55 PM 54.5 °F - 43.0 °F 65% 30.05 in 10.0 mi South 6.9 mph - N/A   Clear
4:15 PM 54.0 °F - 42.8 °F 66% 30.05 in 10.0 mi South 9.2 mph - N/A   Clear
4:35 PM 53.4 °F - 42.8 °F 67% 30.04 in 10.0 mi South 9.2 mph - N/A   Clear
4:55 PM 52.7 °F - 42.8 °F 69% 30.04 in 10.0 mi South 8.1 mph - N/A   Clear
5:15 PM 52.3 °F - 42.4 °F 69% 30.04 in 10.0 mi South 6.9 mph - N/A   Clear
5:35 PM 52.0 °F - 42.3 °F 69% 30.03 in 10.0 mi SSE 6.9 mph - N/A   Clear
5:55 PM 51.4 °F - 42.3 °F 71% 30.03 in 10.0 mi South 8.1 mph - N/A   Clear
6:15 PM 51.4 °F - 42.4 °F 71% 30.03 in 10.0 mi South 4.6 mph - N/A   Clear
6:35 PM 51.1 °F - 42.4 °F 72% 30.03 in 10.0 mi South 8.1 mph - N/A   Clear
6:55 PM 50.9 °F - 41.5 °F 70% 30.02 in 10.0 mi South 8.1 mph - N/A   Clear
7:15 PM 50.5 °F - 40.8 °F 69% 30.02 in 10.0 mi South 8.1 mph - N/A   Clear
7:36 PM 50.5 °F - 39.2 °F 65% 30.01 in 10.0 mi South 10.4 mph - N/A   Clear
7:55 PM 50.2 °F - 38.3 °F 64% 30.00 in 10.0 mi South 6.9 mph - N/A   Clear
8:15 PM 50.4 °F - 37.4 °F 61% 30.00 in 10.0 mi South 8.1 mph - N/A   Clear
8:36 PM 50.7 °F - 36.3 °F 58% 29.99 in 10.0 mi South 8.1 mph - N/A   Clear
8:55 PM 50.4 °F - 35.8 °F 57% 29.99 in 10.0 mi South 6.9 mph - N/A   Clear
9:15 PM 50.5 °F - 35.6 °F 57% 30.01 in 10.0 mi SSW 4.6 mph - N/A   Clear
9:35 PM 48.9 °F - 36.1 °F 61% 30.01 in 10.0 mi SSW 3.5 mph - N/A   Clear
9:55 PM 50.4 °F - 36.3 °F 59% 30.00 in 10.0 mi SSW 6.9 mph - N/A   Clear
10:15 PM 49.8 °F - 37.4 °F 62% 30.00 in 10.0 mi SSW 4.6 mph - N/A   Clear
10:35 PM 49.1 °F - 37.8 °F 65% 30.00 in 10.0 mi SSW 4.6 mph - N/A   Clear
10:55 PM 48.0 °F - 37.6 °F 67% 29.99 in 10.0 mi SSW 3.5 mph - N/A   Clear
11:14 PM 47.7 °F - 37.8 °F 69% 29.99 in 10.0 mi Calm Calm - N/A   Clear
11:35 PM 46.9 °F - 37.6 °F 70% 29.99 in 10.0 mi SSW 3.5 mph - N/A   Clear
11:55 PM 46.4 °F 45.2 °F 37.6 °F 71% 29.99 in 10.0 mi South 3.5 mph - N/A   Clear